Zurück zum Katalog

STARLINK-34959

AktivKommunikationSSO
NORAD 65246·PAYLOAD·🇺🇸 United States

Gestartet Aug 18, 2025 von Vandenberg Space Force Base

Loading…

Nächste Überflüge (nächste 24 Stunden)

TLE

AktuellSource: CelesTrak SupGP

Epoche: Sep 14, 2026, 14:33 UTC

1 65246C 25179M   26257.60673611  .00008045  00000+0  24970-3 0  2577
2 65246  97.2837 297.0744 0001096 118.8274 185.7862 15.33439776    17

Verfolge STARLINK-34959 in Echtzeit mit AllMySat

Download on the App Store